AV194 Weather Reports


Display with metric or nautical units.
time (UTC)temp
F
wind
direction
speed
MPH
gust
MPH
rain 1hr
in
rain 24hr
in
rain mn
in
humidity
%
barometer
mb
20190923181634 85 152 0.0 4.0 0.00 0.00 0.00 54 1006.1
20190923180131 85 151 0.0 9.0 0.00 0.00 0.00 52 1006.4
20190923174603 85 53 0.0 7.0 0.00 0.00 0.00 53 1006.3
20190923173101 85 100 0.0 6.0 0.00 0.00 0.00 52 1006.5
20190923171603 85 184 0.0 8.0 0.00 0.00 0.00 51 1006.6
20190923170050 85 153 1.0 6.0 0.00 0.00 0.00 49 1006.6
20190923164602 85 57 0.0 13.0 0.00 0.00 0.00 50 1006.7
20190923163053 85 113 0.0 6.0 0.00 0.00 0.00 54 1006.8
20190923161636 86 132 1.0 6.0 0.00 0.00 0.00 57 1006.9
20190923160100 84 161 0.0 0.0 0.00 0.00 0.00 63 1007.2
20190923154552 83 161 0.0 2.0 0.00 0.00 0.00 65 1007.4
20190923153104 83 302 0.0 4.0 0.00 0.00 0.00 65 1007.5
20190923151534 81 325 0.0 5.0 0.00 0.00 0.00 68 1007.8
20190923150033 79 178 0.0 0.0 0.00 0.00 0.00 73 1008.1
20190923144532 78 73 0.0 0.0 0.00 0.00 0.00 76 1008.4
20190923143023 76 248 0.0 0.0 0.00 0.00 0.00 80 1008.5
20190923141534 74 103 0.0 1.0 0.00 0.00 0.00 85 1008.6
20190923140223 74 80 0.0 0.0 0.00 0.00 0.00 85 1008.7
20190923134713 73 83 0.0 0.0 0.00 0.00 0.00 87 1009.0
20190923133135 71 83 0.0 0.0 0.00 0.00 0.00 89 1009.1
20190923131731 70 277 0.0 0.0 0.00 0.00 0.00 91 1009.3
20190923130226 67 277 0.0 0.0 0.00 0.00 0.00 95 1009.6
20190923124714 66 277 0.0 0.0 0.00 0.00 0.00 95 1009.7
20190923123120 66 277 0.0 0.0 0.00 0.00 0.00 95 1009.8
20190923121740 65 277 0.0 0.0 0.00 0.00 0.00 94 1009.8
20190923120101 65 277 0.0 0.0 0.00 0.00 0.00 93 1009.9
20190923114606 65 277 0.0 0.0 0.00 0.00 0.00 93 1009.9
20190923113045 64 277 0.0 0.0 0.00 0.00 0.00 93 1009.8
20190923111625 64 277 0.0 0.0 0.00 0.00 0.00 93 1009.9
20190923110115 64 277 0.0 0.0 0.00 0.00 0.00 93 1009.9
20190923104546 64 277 0.0 0.0 0.00 0.00 0.00 92 1010.0
20190923103059 64 277 0.0 0.0 0.00 0.00 0.00 92 1010.1
20190923101602 64 277 0.0 0.0 0.00 0.00 0.00 92 1010.2
20190923100052 64 277 0.0 0.0 0.00 0.00 0.00 92 1010.2
20190923094545 64 277 0.0 0.0 0.00 0.00 0.00 92 1010.1
20190923093042 64 277 0.0 0.0 0.00 0.00 0.00 91 1010.1
20190923091539 64 277 0.0 0.0 0.00 0.00 0.00 91 1010.1
20190923090031 64 277 0.0 0.0 0.00 0.00 0.00 91 1010.2
20190923084556 65 277 0.0 0.0 0.00 0.00 0.00 90 1010.3
20190923083050 65 277 0.0 0.0 0.00 0.00 0.00 90 1010.5
20190923081537 65 277 0.0 0.0 0.00 0.00 0.00 90 1010.5
20190923080016 65 277 0.0 0.0 0.00 0.00 0.00 89 1010.7
20190923074516 65 277 0.0 0.0 0.00 0.00 0.00 89 1010.8
20190923073035 65 277 0.0 0.0 0.00 0.00 0.00 89 1010.8
20190923071537 65 277 0.0 0.0 0.00 0.00 0.00 89 1011.0
20190923070007 66 277 0.0 0.0 0.00 0.00 0.00 88 1011.1
20190923064504 66 277 0.0 0.0 0.00 0.00 0.00 88 1011.2
20190923063002 66 277 0.0 0.0 0.00 0.00 0.00 88 1011.4
20190923061723 66 277 0.0 0.0 0.00 0.00 0.00 88 1011.5
20190923060300 66 277 0.0 0.0 0.00 0.00 0.00 88 1011.7
20190923054644 66 277 0.0 0.0 0.00 0.00 0.00 88 1011.8
20190923053142 66 277 0.0 0.0 0.00 0.00 0.00 87 1012.0
20190923051629 66 277 0.0 0.0 0.00 0.00 0.00 87 1012.1
20190923050136 67 277 0.0 0.0 0.00 0.00 0.00 86 1012.4
20190923044651 67 277 0.0 0.0 0.00 0.00 0.00 85 1012.5
20190923043127 67 277 0.0 0.0 0.00 0.00 0.00 85 1012.5
20190923041717 67 277 0.0 0.0 0.00 0.00 0.00 85 1012.6
20190923040300 67 277 0.0 0.0 0.00 0.00 0.00 85 1012.8
20190923034628 68 277 0.0 0.0 0.00 0.00 0.00 85 1013.0
20190923033106 68 277 0.0 0.0 0.00 0.00 0.00 84 1013.2
20190923031611 68 277 0.0 0.0 0.00 0.00 0.00 83 1013.3
20190923030104 68 277 0.0 0.0 0.00 0.00 0.00 83 1013.5
20190923024605 68 277 0.0 0.0 0.00 0.00 0.00 83 1013.6
20190923023123 69 277 0.0 0.0 0.00 0.00 0.00 81 1013.6
20190923021617 69 277 0.0 0.0 0.00 0.00 0.00 81 1013.7
20190923020122 69 277 0.0 0.0 0.00 0.00 0.00 80 1013.8
20190923014651 70 277 0.0 0.0 0.00 0.00 0.00 79 1014.0
20190923013112 70 277 0.0 0.0 0.00 0.00 0.00 78 1014.0
20190923011616 71 277 0.0 0.0 0.00 0.00 0.00 76 1014.1
20190923010224 71 277 0.0 0.0 0.00 0.00 0.00 76 1014.3
20190923004603 71 277 0.0 0.0 0.00 0.00 0.00 75 1014.4
20190923003039 72 277 0.0 0.0 0.00 0.00 0.00 74 1014.3
20190923001532 73 277 0.0 0.0 0.00 0.00 0.00 72 1014.3
20190923000034 73 277 0.0 0.0 0.00 0.00 0.00 71 1014.4
20190922234619 74 277 0.0 0.0 0.00 0.00 0.00 70 1014.4
20190922233044 75 277 0.0 0.0 0.00 0.00 0.00 69 1014.3
20190922231545 75 277 0.0 0.0 0.00 0.00 0.00 66 1014.3
20190922230047 76 277 0.0 0.0 0.00 0.00 0.00 64 1014.4
20190922224555 77 277 0.0 0.0 0.00 0.00 0.00 63 1014.4
20190922223058 77 277 0.0 0.0 0.00 0.00 0.00 61 1014.5
20190922221551 78 277 0.0 0.0 0.00 0.00 0.00 60 1014.5
20190922220050 78 277 0.0 0.0 0.00 0.00 0.00 59 1014.4
20190922214623 79 277 0.0 0.0 0.00 0.00 0.00 59 1014.4
20190922213029 79 277 0.0 2.0 0.00 0.00 0.00 59 1014.6
20190922211603 80 100 0.0 2.0 0.00 0.00 0.00 58 1014.6
20190922210027 81 355 0.0 1.0 0.00 0.00 0.00 56 1014.6
20190922204546 81 347 0.0 4.0 0.00 0.00 0.00 54 1014.7
20190922203027 82 159 0.0 0.0 0.00 0.00 0.00 53 1014.8
20190922201522 82 71 0.0 5.0 0.00 0.00 0.00 50 1014.7
20190922200013 82 181 0.0 0.0 0.00 0.00 0.00 50 1014.9
20190922194514 82 117 0.0 2.0 0.00 0.00 0.00 50 1015.2
20190922193043 83 101 0.0 4.0 0.00 0.00 0.00 48 1015.3
20190922191520 83 143 0.0 5.0 0.00 0.00 0.00 45 1015.6
20190922190008 83 45 0.0 5.0 0.00 0.00 0.00 44 1016.0
20190922184504 83 248 0.0 6.0 0.00 0.00 0.00 42 1016.3
20190922183007 83 132 0.0 4.0 0.00 0.00 0.00 39 1016.3